Wind_Speed
7 7 6 7 7 7 7 6 6 6 5 5 7 8 10 13 14 15 16 16 15 15 17 19 22 24 25 25 26 30 37 42 41 38 36 34 32 30 27 26 25 24 24 23 22 20 18 17 17 18 18 18 16 16 15 15 14 12 11 11 11 11 10 11 11 11 10 11 10 8 9 9 6 6 7 7 7 7 7 7 7 7 6 6 10
7 8 7 7 8 8 8 8 8 9 8 6 6 6 7 10 12 13 15 16 15 15 16 17 20 22 24 25 26 28 34 40 42 39 37 35 33 32 30 27 25 25 25 24 22 20 19 19 18 18 18 17 17 16 15 15 15 13 11 12 12 11 10 10 10 9 9 10 10 8 8 7 5 6 7 8 7 5 5 6 7 7 7 6 7
7 8 8 8 9 9 9 9 10 11 10 8 8 8 8 9 10 11 13 14 14 15 16 16 18 21 24 26 27 29 33 37 39 36 36 36 34 32 31 28 26 25 25 23 21 21 21 20 19 19 18 18 18 17 15 15 15 13 12 12 11 9 9 10 9 9 9 10 9 8 7 6 5 6 7 7 6 5 4 6 7 6 9 9 7
7 7 8 8 9 9 10 10 10 10 10 9 8 9 9 8 7 7 9 11 12 14 14 15 18 21 24 26 28 30 33 36 36 31 31 36 35 32 30 28 27 25 23 21 20 20 22 22 21 20 19 19 18 16 15 15 13 12 11 10 9 8 9 10 9 9 9 9 8 7 7 6 5 5 6 6 6 5 5 9 10 8 9 11 8
7 7 8 9 9 10 10 10 10 10 10 8 8 8 8 7 7 6 6 8 11 13 14 16 18 21 24 27 28 29 31 37 38 32 30 34 34 30 28 27 27 25 22 21 20 21 23 23 21 21 21 20 16 14 13 12 11 10 9 8 9 9 9 9 8 7 7 7 7 7 6 5 4 5 5 4 5 6 7 11 12 9 10 11 9
7 8 9 10 10 10 10 10 10 10 10 9 7 7 8 7 6 6 6 7 10 13 15 17 19 20 23 26 28 28 30 37 39 32 31 33 31 29 28 27 28 26 25 24 23 23 25 24 21 22 21 18 15 13 13 12 11 10 10 9 9 9 8 7 6 6 6 6 6 6 5 5 5 4 4 4 6 8 8 11 11 8 10 13 11
8 9 9 9 9 9 9 9 9 9 10 8 6 5 6 7 5 4 5 7 9 11 14 17 19 20 23 26 27 27 29 34 35 31 30 31 30 30 29 29 28 27 26 27 25 24 25 23 20 19 17 15 14 13 12 12 11 10 10 9 8 7 6 5 6 6 5 6 6 5 6 5 5 5 5 6 8 8 10 13 11 8 12 13 10
8 8 9 9 8 8 8 7 7 7 7 6 4 3 3 5 5 5 5 6 7 8 10 13 16 19 22 25 26 26 28 32 33 30 29 30 29 29 29 28 27 26 26 25 23 22 22 19 17 17 17 17 16 14 13 12 11 10 9 8 7 6 6 6 6 5 6 7 6 6 6 6 6 7 7 8 9 9 11 14 11 9 12 11 8
7 8 8 8 7 7 6 5 5 5 5 5 4 4 4 4 5 6 6 6 7 8 8 9 11 15 20 24 24 22 24 30 32 30 29 29 28 27 27 27 27 25 24 22 20 20 21 19 19 20 20 18 17 16 14 13 12 10 9 9 8 7 7 6 5 5 6 6 6 6 7 7 7 7 8 8 9 9 11 13 11 10 11 9 6
7 7 7 8 7 6 6 5 5 5 4 4 4 4 4 5 5 6 7 7 8 9 9 9 11 12 19 23 24 23 24 27 31 31 29 29 28 28 27 26 26 26 25 22 19 20 22 23 23 21 19 17 16 15 14 13 12 11 11 10 10 8 7 7 6 6 6 6 7 7 7 7 7 7 7 8 8 9 11 12 11 10 11 8 5
7 7 7 7 6 5 5 6 5 5 5 5 6 6 6 6 5 5 8 9 7 9 9 11 14 10 16 21 20 23 26 28 30 32 31 30 29 29 27 25 24 24 25 24 23 23 25 25 21 19 18 17 15 13 11 10 11 11 11 11 10 10 9 8 7 7 7 7 8 7 6 6 7 7 6 6 9 11 11 11 10 10 9 7 5
7 7 7 6 6 5 5 5 6 7 7 8 9 9 9 8 6 6 11 11 6 6 8 10 13 7 8 16 18 20 23 26 28 30 31 31 30 29 27 26 24 22 21 24 26 25 25 22 19 18 18 16 13 11 10 10 11 11 12 11 12 12 12 11 10 9 7 5 6 7 6 5 6 6 6 8 10 11 9 8 8 8 7 7 5
7 7 7 6 6 6 6 6 6 7 8 9 11 11 10 9 8 7 11 11 6 3 4 6 9 11 8 3 12 18 21 23 25 28 31 32 31 29 29 28 27 25 23 23 24 23 20 18 17 17 16 14 13 12 11 11 12 12 13 13 13 13 11 10 9 9 7 4 3 5 6 5 5 6 8 9 8 6 6 5 7 8 7 6 5
7 7 7 6 6 6 6 7 7 8 9 10 11 10 10 10 8 7 9 10 6 3 2 5 7 9 10 7 2 11 16 18 19 22 26 26 24 25 27 28 28 27 24 22 22 21 18 16 16 16 15 14 12 10 10 11 12 11 12 12 11 9 7 6 5 5 5 3 3 4 6 6 7 7 7 5 4 4 4 5 8 9 8 7 6
7 7 7 7 7 7 7 7 7 8 10 12 11 9 10 10 7 5 7 8 5 3 3 3 6 7 6 5 4 5 11 14 14 14 17 18 19 20 21 22 23 22 20 18 18 17 16 15 15 15 14 12 11 10 9 8 7 7 8 7 6 4 4 4 4 3 4 4 5 5 5 5 4 3 2 4 5 6 5 7 10 10 9 8 6
8 8 7 7 7 7 7 7 7 8 10 12 10 8 10 10 6 4 6 7 5 4 4 2 2 5 5 4 4 3 4 9 10 10 13 17 18 18 17 17 17 17 16 15 14 14 14 14 13 12 12 11 11 11 10 7 6 6 6 5 5 4 4 4 4 3 4 4 3 2 1 0 2 3 5 6 7 8 7 5 8 9 7 6 4
9 9 8 8 7 7 7 7 8 10 11 10 9 8 9 8 5 4 5 6 6 5 5 4 2 2 3 3 5 7 4 0 4 8 9 11 13 14 14 14 13 13 14 14 14 14 13 13 11 10 11 11 10 10 10 9 8 7 6 5 5 4 4 3 3 3 2 2 2 3 4 5 5 6 7 7 7 8 5 1 4 6 5 5 4
10 10 10 9 7 7 7 7 8 10 9 8 8 8 7 5 3 2 3 4 6 6 6 5 4 4 7 9 9 9 7 6 4 4 5 6 7 9 11 12 12 13 13 13 14 13 11 10 11 10 10 10 11 11 11 10 8 7 7 5 5 4 4 4 4 4 5 6 6 7 7 7 7 6 7 6 5 5 4 3 5 6 4 5 6
11 11 10 9 9 8 7 6 8 9 6 5 5 4 3 2 2 2 3 4 6 7 6 5 5 5 8 11 10 8 6 5 4 4 4 6 7 7 8 8 10 11 9 8 11 13 11 10 11 11 11 11 10 10 11 11 9 8 7 7 6 6 5 5 5 5 6 7 8 8 8 7 7 6 6 5 5 5 5 6 7 7 5 5 6
11 11 10 10 11 11 8 6 7 6 4 3 2 1 1 1 2 3 3 3 5 7 6 5 5 5 7 8 7 6 4 3 3 4 5 7 8 8 7 7 8 9 8 8 10 13 14 13 12 11 10 10 10 10 11 13 11 8 8 9 9 8 7 7 7 7 7 8 8 9 8 7 7 7 6 7 7 8 8 9 9 9 8 6 6
12 12 10 9 10 10 9 6 5 4 3 3 2 1 2 2 2 3 3 4 6 7 6 5 5 5 5 5 4 3 2 2 3 5 7 9 11 11 9 8 9 11 11 11 11 12 12 12 11 11 10 10 11 11 11 12 12 10 10 10 10 10 10 10 9 9 9 9 9 8 7 7 7 7 8 9 10 10 10 11 10 10 9 8 7
12 11 10 9 8 8 9 8 4 3 4 3 3 2 2 2 3 3 4 6 8 8 6 5 5 5 5 4 4 3 4 5 6 7 9 11 13 12 11 12 13 13 13 14 12 11 12 12 12 12 12 12 12 12 12 12 12 11 11 11 10 11 12 11 10 10 9 8 7 7 6 5 5 6 7 8 9 10 10 11 10 10 10 10 9
12 10 10 9 8 8 8 7 3 4 5 3 3 3 3 3 4 4 5 7 9 9 8 5 4 4 4 4 5 5 7 8 8 10 11 13 14 13 13 15 16 14 13 14 13 12 13 14 14 14 14 14 14 15 14 13 13 12 12 12 11 12 13 12 10 10 9 8 7 6 6 5 4 5 6 7 8 9 10 11 11 12 12 12 11
11 10 10 9 9 8 6 4 4 5 5 4 3 3 3 4 4 5 7 8 9 10 8 5 4 3 2 4 6 7 8 10 10 11 13 14 15 15 14 15 16 15 13 13 14 15 16 17 17 17 16 15 16 16 15 14 14 13 13 13 12 12 12 11 9 9 8 7 7 6 5 6 6 5 5 6 9 11 12 12 13 14 15 14 14
11 10 10 9 9 9 7 6 7 6 6 5 4 4 4 4 5 7 9 9 9 9 8 6 5 4 3 4 6 8 10 11 12 14 15 15 17 18 17 16 16 16 16 15 16 18 18 18 19 18 17 17 16 16 16 15 14 13 13 13 13 12 10 9 8 8 8 7 6 6 5 6 6 6 7 9 11 12 13 13 14 15 16 15 13
11 10 10 10 10 9 8 7 7 7 7 5 5 5 5 5 6 8 9 10 9 8 7 6 6 5 4 5 7 8 11 13 14 16 17 18 19 20 19 17 17 18 19 19 20 20 20 20 20 19 18 18 17 15 14 14 14 13 12 13 12 9 8 8 8 8 7 7 6 6 5 5 7 9 10 10 10 11 14 15 12 14 17 16 12
10 10 10 10 10 10 9 8 8 8 7 7 6 6 6 7 8 8 9 10 11 9 8 7 6 5 5 7 8 10 12 14 16 17 18 18 19 19 18 18 18 19 20 21 21 21 20 20 19 18 17 17 16 14 14 14 14 12 11 11 11 10 9 9 8 8 7 6 5 5 4 4 6 7 7 7 7 9 13 16 14 14 18 17 12
10 10 10 10 10 10 9 10 9 9 8 8 7 7 7 7 8 8 9 10 10 10 8 7 7 6 7 8 11 12 13 15 16 17 18 17 17 17 18 19 19 19 20 20 20 20 19 19 18 17 17 16 15 13 12 12 11 10 9 9 9 9 9 8 8 8 6 5 4 4 4 4 5 5 4 5 7 7 11 15 16 16 18 16 12
10 9 10 11 11 10 10 10 10 10 10 8 7 8 9 9 9 9 10 11 12 11 9 8 8 8 8 10 12 13 13 15 17 18 18 18 18 17 17 17 16 16 18 19 19 19 18 17 16 14 13 12 11 10 9 9 9 8 8 7 6 6 6 5 5 5 4 4 3 3 3 2 3 4 4 6 8 7 10 15 16 15 16 15 12
10 10 10 10 11 10 11 11 10 11 10 8 7 8 10 11 12 12 13 14 16 16 13 12 12 11 10 13 15 15 14 16 18 19 18 18 18 17 17 16 15 15 16 17 17 15 12 11 11 10 9 9 8 8 8 7 7 7 6 6 5 4 4 4 3 2 3 3 2 2 3 2 3 4 4 7 9 8 9 13 14 13 14 14 12
10 10 10 10 11 11 11 11 11 11 10 8 7 7 7 9 11 13 14 14 16 17 16 15 15 14 15 17 18 18 18 18 19 19 18 17 17 16 16 16 15 15 15 16 14 10 9 9 9 8 8 8 7 7 7 6 6 5 4 4 4 2 2 2 1 1 2 1 1 2 2 2 3 5 6 8 9 8 9 11 12 11 13 13 13
11 10 10 10 11 12 12 11 12 12 10 9 8 7 6 6 7 10 12 13 15 17 16 16 16 16 17 18 19 19 20 19 18 18 17 17 16 16 15 15 15 14 14 14 12 8 8 8 8 7 7 7 6 6 6 5 5 5 3 3 4 2 2 3 3 4 3 2 3 4 4 4 5 6 7 8 9 9 9 10 11 11 13 14 15
11 10 11 10 11 12 12 12 12 12 11 10 9 8 7 7 6 8 11 13 15 17 17 17 18 19 19 20 19 19 19 18 18 17 17 16 16 15 15 14 13 12 12 12 9 7 6 7 6 6 6 6 6 6 5 4 4 4 3 3 4 4 5 6 8 8 5 5 6 6 5 6 6 7 7 8 8 9 10 10 11 12 13 15 16
12 11 11 11 11 12 13 13 13 13 12 11 11 10 9 8 8 8 10 13 16 18 18 19 21 21 21 20 19 18 18 18 17 17 17 16 15 14 13 12 11 10 9 8 6 6 5 5 6 5 5 5 5 5 5 4 4 5 4 4 5 5 6 8 9 8 7 7 7 6 6 6 6 7 8 8 9 9 10 11 12 13 15 17 18
13 12 12 11 11 12 13 14 14 13 13 13 12 11 10 10 9 9 10 13 15 17 19 21 22 22 21 21 20 19 19 18 17 17 15 14 13 12 11 9 8 6 6 5 6 7 6 5 5 5 5 5 5 5 5 5 5 6 6 6 6 6 7 8 9 9 9 9 9 8 8 8 8 8 8 9 9 10 11 12 12 15 19 21 22
15 13 12 11 11 12 13 14 14 14 13 13 13 13 12 11 11 11 11 12 14 15 17 19 21 22 21 21 20 20 19 18 17 15 14 13 11 10 9 9 8 7 6 6 7 7 6 5 5 5 5 5 5 5 5 5 6 7 7 7 7 8 8 8 8 9 10 10 10 10 10 9 9 8 8 10 10 11 12 13 16 19 23 25 26
16 15 13 12 12 12 13 14 15 15 14 14 13 13 13 13 12 12 13 13 14 15 16 18 20 22 23 23 22 21 20 18 16 15 14 13 12 12 11 11 10 9 9 8 8 8 7 5 5 5 5 5 5 6 6 7 7 8 8 8 8 9 9 10 10 11 11 11 11 11 11 10 10 10 10 12 14 15 16 18 20 21 24 27 27
18 16 15 14 13 13 13 14 15 16 16 15 14 14 14 14 14 14 14 14 15 16 17 18 20 23 24 24 23 22 20 18 17 16 16 15 15 15 14 13 11 10 9 8 8 8 7 5 5 5 5 5 6 6 7 7 8 8 9 9 8 9 11 12 12 12 11 11 11 11 11 11 10 10 11 14 18 20 20 21 22 23 25 26 24
19 18 18 17 14 14 14 14 15 17 17 16 15 15 15 15 15 15 15 15 16 17 17 18 19 21 22 22 23 23 21 19 18 17 16 17 17 16 15 14 12 11 10 9 9 8 7 6 6 6 6 5 6 7 7 8 8 8 8 8 8 9 10 10 10 9 10 10 10 10 11 11 11 12 15 18 20 20 20 22 25 27 27 26 25
19 19 20 19 17 16 15 14 15 17 17 17 17 16 16 16 16 16 16 16 16 18 18 18 19 21 21 21 22 23 22 19 18 17 17 17 17 17 16 15 14 13 12 11 10 10 9 8 8 7 7 6 6 6 7 7 7 8 8 8 8 9 9 9 10 9 9 10 10 11 12 14 15 16 18 19 20 21 23 26 28 28 27 27 26
19 19 20 21 20 19 17 16 16 16 16 17 17 16 17 17 17 17 17 17 17 18 19 19 19 20 21 21 23 24 22 19 17 17 17 17 17 18 17 16 15 14 13 12 11 11 10 10 9 8 7 6 6 6 7 7 7 8 8 8 9 10 10 10 11 12 12 13 13 13 14 16 17 17 17 18 21 24 26 27 27 27 26 26 25
20 19 21 22 22 21 20 19 18 17 16 16 16 16 17 17 17 17 18 18 18 18 19 19 19 20 21 23 25 25 23 20 17 17 18 18 17 17 17 16 15 15 14 13 12 12 11 11 10 9 8 7 7 7 7 7 7 7 8 8 9 10 10 11 12 14 15 15 15 15 15 17 18 18 19 22 24 26 27 27 26 26 25 24 24
20 20 21 23 24 24 23 22 20 18 18 17 16 16 16 16 17 18 18 19 19 18 18 19 20 20 21 25 27 27 25 22 19 18 18 19 18 17 17 16 16 15 15 14 13 12 12 11 11 10 9 9 9 8 7 8 8 8 8 9 10 11 11 11 14 15 13 13 15 16 16 17 18 19 21 23 25 26 26 26 26 24 23 23 23
21 21 21 22 22 24 24 24 22 21 20 19 18 17 17 16 16 17 18 19 20 19 19 19 20 20 22 24 27 29 28 25 22 20 19 19 19 18 17 16 16 16 15 14 13 13 13 13 13 12 13 13 13 11 10 10 11 10 9 11 12 13 12 13 15 14 12 13 15 16 17 18 20 21 22 23 25 26 25 24 24 23 23 23 24
22 22 22 22 22 23 24 24 23 23 23 22 21 20 19 18 17 17 18 19 20 20 20 19 19 20 21 23 26 29 30 27 23 21 21 20 19 18 17 16 16 16 16 16 16 15 15 15 16 16 16 16 15 14 13 13 13 12 11 12 13 14 14 14 15 15 14 14 15 17 18 20 22 23 23 23 24 25 24 23 23 23 23 23 24
24 23 23 23 23 23 23 24 24 24 24 24 23 21 21 20 19 18 18 19 19 20 21 20 20 21 21 21 23 26 28 27 24 22 21 20 19 18 17 17 17 18 18 18 18 17 16 17 18 18 18 17 16 15 15 14 14 14 14 14 14 15 16 16 15 15 15 16 16 18 20 22 23 23 24 23 23 23 23 22 22 23 23 24 25
27 26 25 25 25 25 25 25 25 25 25 25 24 23 22 22 21 20 20 20 20 21 22 21 21 22 22 22 22 23 25 25 25 23 22 21 20 18 18 18 19 20 21 21 20 18 18 19 20 19 19 19 18 16 16 16 15 15 15 15 16 16 17 17 16 16 17 17 18 19 21 21 21 22 23 23 22 22 22 22 23 23 24 25 26
30 29 28 28 27 27 27 27 28 28 27 26 26 25 24 23 22 22 21 21 21 22 23 23 22 22 22 23 23 22 22 24 24 23 22 22 20 19 20 21 23 23 23 22 21 21 21 21 21 21 21 20 19 18 17 17 17 17 17 16 17 17 16 16 17 17 18 19 19 20 20 20 20 21 22 22 22 21 21 22 23 23 24 25 26
33 32 31 30 30 29 29 29 29 29 29 29 29 29 28 26 25 23 22 21 21 22 24 25 25 24 23 23 24 24 23 23 23 24 24 22 21 21 23 25 25 24 24 23 23 22 22 22 23 23 23 22 21 20 19 18 19 19 18 17 17 17 17 17 18 18 18 19 20 20 20 20 21 21 21 21 22 22 22 23 23 24 25 26 27
35 34 34 34 33 32 31 30 30 30 30 30 31 31 31 30 27 25 24 23 22 22 24 25 26 26 25 24 24 25 24 24 24 25 24 22 22 24 27 28 26 24 24 24 24 23 24 25 25 25 25 24 23 21 21 21 21 21 19 18 18 18 18 18 19 19 19 20 20 20 20 20 21 21 21 21 22 23 23 24 25 25 26 26 26
37 37 36 36 36 34 33 32 32 31 31 32 32 32 32 32 30 27 26 25 24 23 23 25 26 27 27 26 25 25 25 26 26 25 24 24 26 29 30 28 25 24 24 25 25 25 25 26 26 27 26 26 24 24 24 24 23 21 20 19 19 19 19 19 19 20 20 20 20 21 21 21 22 22 22 22 22 23 24 25 25 26 26 27 27
Wind_Direction
277 273 270 263 258 257 262 273 278 278 287 289 273 260 255 256 260 259 255 253 249 247 245 241 238 236 235 233 233 233 231 228 226 225 227 226 223 223 225 226 226 229 230 232 235 235 231 232 239 243 246 246 244 243 244 246 247 249 256 262 267 272 272 269 274 281 286 291 294 290 291 306 318 302 298 303 309 331 342 331 335 342 343 345 329
276 274 272 266 263 262 264 273 278 280 287 289 279 272 262 259 263 264 261 260 256 252 249 246 243 239 235 232 231 234 233 228 225 225 224 224 223 221 222 224 225 226 227 229 229 229 230 232 234 237 242 245 243 243 245 247 249 255 262 266 272 275 270 267 274 283 287 292 295 295 293 298 299 296 303 304 306 334 349 331 342 344 331 341 331
271 275 276 273 268 265 265 268 273 280 283 279 272 272 265 253 251 254 257 261 264 263 259 252 245 238 234 232 230 233 234 228 224 224 223 223 223 220 219 223 226 225 225 225 224 226 231 234 234 236 241 245 245 241 241 247 254 261 266 270 272 266 259 262 268 274 281 287 292 295 291 285 289 297 300 301 314 344 347 325 339 340 322 330 335
270 279 285 283 277 269 266 267 271 274 275 275 276 274 268 257 251 251 253 255 259 264 264 256 247 238 234 233 232 234 234 229 224 220 219 222 222 217 217 222 227 226 222 220 220 225 232 235 237 238 241 245 244 240 240 248 255 257 258 263 261 250 252 262 266 270 278 284 288 290 287 288 294 298 303 315 335 342 326 324 337 336 319 326 330
272 280 286 289 284 273 267 267 269 271 271 275 282 276 266 259 260 259 256 252 250 252 255 253 249 242 236 235 234 236 236 229 223 217 214 218 218 215 216 222 225 222 217 216 216 223 232 236 237 238 240 242 238 233 237 242 242 242 241 241 242 244 252 260 265 270 273 275 281 284 287 297 303 305 312 327 342 334 318 326 337 334 320 325 328
278 284 287 290 286 275 268 264 266 271 270 270 276 276 267 260 261 266 271 271 262 253 247 246 247 246 241 237 235 237 236 228 222 217 214 216 215 214 217 221 223 222 221 220 220 225 232 236 236 237 239 238 233 231 233 232 230 232 230 228 234 244 257 266 267 267 267 269 277 285 293 300 302 310 317 320 333 336 324 328 340 331 319 328 332
278 286 289 291 285 275 267 261 262 268 269 269 273 276 267 261 264 274 285 292 285 270 255 247 246 247 244 239 235 237 236 227 220 217 215 216 216 217 218 220 221 221 223 224 223 227 232 234 233 235 235 232 231 232 231 228 227 227 227 231 238 244 251 258 258 263 272 276 281 290 297 304 308 313 319 323 331 331 320 326 337 328 324 335 335
275 280 285 288 284 276 269 264 262 263 266 267 266 272 274 271 275 279 286 298 299 293 280 262 253 249 244 237 232 234 234 227 221 218 216 216 217 217 218 219 219 221 223 223 220 220 225 226 224 225 226 223 223 225 223 219 217 220 226 230 231 233 240 246 253 264 272 278 289 298 302 310 315 312 313 320 324 319 315 324 334 329 332 344 334
268 274 279 281 283 280 272 267 268 270 271 263 260 274 289 291 293 290 289 300 310 314 309 294 277 258 243 233 226 226 227 224 222 221 218 217 217 218 219 219 221 223 220 215 213 214 216 215 214 217 222 223 221 221 221 214 208 209 217 220 223 228 236 240 250 269 277 284 294 294 296 306 310 308 306 310 315 317 321 328 335 334 339 352 332
260 265 268 272 279 282 277 278 285 286 281 270 272 284 287 291 302 300 296 301 319 328 322 321 319 281 245 234 228 223 221 220 220 220 219 219 218 219 222 222 223 226 221 213 210 208 210 213 215 217 220 220 217 215 215 213 212 216 221 226 231 232 235 244 257 270 272 277 285 284 288 299 303 299 299 307 314 319 326 333 339 342 345 357 342
255 256 258 264 273 279 279 286 290 285 281 282 288 290 287 290 297 296 292 294 317 340 339 344 345 304 237 229 231 230 227 224 221 219 220 222 221 218 221 221 221 224 219 208 204 204 208 214 214 212 210 208 208 210 214 220 224 229 233 239 244 245 246 249 255 260 259 263 274 273 275 298 305 297 298 315 318 319 331 337 339 348 351 357 356
249 250 253 257 260 263 272 280 281 280 282 287 290 288 284 284 285 286 288 286 300 341 347 360 9 359 232 223 227 229 229 227 223 218 216 220 220 216 220 222 220 218 210 198 198 205 210 209 204 201 201 200 205 214 222 229 235 240 247 252 257 260 260 255 248 244 245 255 261 251 251 285 303 303 313 322 314 318 339 342 339 360 3 354 355
246 247 250 254 256 261 270 276 277 280 286 291 292 290 282 273 269 276 283 279 276 313 339 360 22 32 25 273 222 217 221 225 224 217 213 216 215 212 218 224 223 224 219 204 197 200 202 197 191 193 197 203 216 224 231 243 250 254 260 264 266 268 268 263 250 236 228 225 228 239 252 263 270 291 311 316 313 327 357 355 355 16 13 349 340
243 244 247 250 255 264 272 277 280 284 292 299 298 292 280 267 259 267 274 269 262 267 314 348 13 33 30 16 162 182 191 197 199 200 203 208 208 206 210 214 214 214 213 203 193 190 190 189 189 195 204 215 225 231 241 253 258 258 261 261 260 258 251 241 228 218 219 214 217 248 269 270 269 285 303 317 336 350 18 30 22 22 22 16 4
241 242 246 251 257 267 272 277 285 291 299 305 303 290 275 261 246 253 261 252 248 257 268 322 3 22 24 12 34 120 144 147 149 161 171 178 185 191 194 196 195 196 197 197 193 188 187 194 203 209 216 224 230 235 239 243 240 238 240 236 226 213 200 195 190 196 222 238 246 258 267 267 273 299 338 14 11 0 17 28 15 15 25 22 14
241 240 245 253 259 266 273 281 289 296 303 306 302 289 272 257 231 221 242 237 228 250 261 254 344 7 12 3 339 352 96 126 147 160 155 156 166 173 176 180 183 187 194 199 200 197 198 205 213 218 224 229 233 233 226 205 182 189 196 187 175 176 183 189 198 212 228 235 239 238 234 126 62 49 40 35 23 17 23 3 349 8 20 358 351
243 240 246 254 258 266 276 286 294 300 306 304 292 278 264 253 227 201 223 227 221 238 261 247 213 269 297 283 288 304 323 77 178 180 170 166 167 170 178 187 190 195 202 207 210 211 211 212 212 217 221 219 212 205 193 173 160 163 172 176 181 187 192 191 194 200 186 158 127 105 87 69 62 52 40 35 26 32 51 28 354 23 17 340 346
243 243 249 251 252 266 278 288 298 304 306 295 278 268 255 240 221 191 198 212 218 229 249 252 229 233 253 258 266 278 289 295 283 244 218 209 193 187 196 202 202 205 208 210 210 209 207 206 202 195 191 186 179 174 167 157 153 154 159 169 177 180 184 176 159 142 128 111 91 80 72 63 56 48 44 44 38 48 72 63 41 40 13 348 348
243 246 250 244 246 267 281 284 297 304 300 284 274 266 244 222 206 186 174 194 214 220 233 247 236 226 241 253 262 270 275 281 277 259 228 212 201 194 195 195 196 198 194 185 186 183 176 174 173 170 170 170 170 172 164 153 152 155 149 139 132 135 147 147 134 121 110 95 79 70 65 59 59 57 54 52 42 40 37 26 28 31 19 6 350
243 245 247 244 256 279 289 280 290 299 284 265 269 234 200 209 185 179 176 182 201 208 212 227 230 223 229 241 251 259 263 253 230 209 189 185 178 164 160 164 166 167 159 149 155 159 158 159 162 163 166 163 159 163 160 150 145 142 138 136 133 130 131 131 127 117 105 91 76 70 67 64 62 54 40 29 21 17 16 15 16 17 19 17 356
240 240 242 244 257 282 292 284 283 283 257 248 253 213 186 189 169 172 184 180 184 192 191 194 206 207 207 211 215 220 212 187 178 168 162 166 158 143 141 151 150 145 144 140 141 145 153 159 157 148 146 145 142 143 146 141 136 136 141 145 143 134 123 117 114 105 94 87 82 80 77 67 55 43 30 22 18 15 15 17 16 14 19 23 11
233 235 239 240 241 261 285 292 282 239 239 243 230 209 187 175 171 175 182 174 169 169 166 168 177 177 176 172 162 161 157 149 155 155 152 156 156 146 144 148 143 138 140 139 135 136 146 150 143 133 131 132 130 130 130 128 128 133 137 137 133 126 116 108 104 100 96 96 99 99 94 78 59 48 39 28 20 20 21 18 15 15 17 17 11
231 232 234 238 232 235 269 291 272 215 228 230 211 204 189 169 164 166 168 166 161 154 148 151 160 156 157 155 142 140 144 144 148 153 153 155 155 150 148 145 137 133 137 138 133 133 138 139 132 126 124 124 124 124 125 125 127 129 128 129 129 123 114 109 110 112 113 115 113 110 105 96 74 55 48 35 21 20 20 15 13 14 12 7 4
227 229 227 234 233 224 232 240 205 204 217 211 198 200 185 169 169 171 167 164 162 154 145 142 150 154 157 150 138 135 137 137 139 144 148 150 147 144 146 145 139 135 134 132 131 133 133 130 125 122 121 122 123 123 123 125 127 127 125 124 118 109 105 107 111 114 115 115 111 105 96 86 74 56 42 30 23 21 16 13 15 16 13 8 4
219 226 228 231 228 221 214 200 191 199 207 197 194 202 189 175 181 182 175 170 168 163 156 152 160 174 179 157 143 136 132 130 132 134 136 138 138 136 136 137 137 137 132 127 127 129 127 124 123 122 121 121 120 120 122 122 122 122 121 115 106 102 107 114 114 114 115 113 107 98 82 68 55 40 32 31 28 22 19 19 18 15 15 17 12
217 224 229 227 219 214 213 204 194 198 203 197 197 199 188 189 196 188 178 177 176 171 166 164 167 181 187 167 153 142 134 132 132 132 132 132 131 128 125 125 128 129 126 124 124 125 124 123 122 122 121 120 119 119 120 119 116 114 111 107 104 108 115 115 113 113 110 105 100 92 83 62 37 29 32 31 21 13 18 23 18 8 13 21 21
219 222 221 218 212 207 207 205 197 195 198 201 204 200 189 191 196 190 180 181 181 176 173 170 170 181 184 170 158 148 142 138 135 133 131 127 124 123 122 122 123 123 122 122 123 123 122 121 120 120 119 118 118 118 116 112 110 106 103 106 112 119 120 115 113 113 108 103 98 85 78 62 38 33 35 25 6 359 8 16 14 8 12 16 13
219 219 215 213 209 204 206 208 203 196 198 202 203 201 193 187 190 192 187 182 181 181 178 173 174 181 183 174 162 153 149 146 141 137 132 127 125 124 122 121 122 122 123 123 123 122 121 119 118 119 118 116 116 116 113 110 111 111 113 114 110 106 105 100 98 101 98 97 95 75 63 59 43 39 31 13 4 350 354 5 9 7 9 9 1
217 215 212 210 207 205 206 208 202 197 200 204 198 196 196 187 182 187 188 182 182 184 179 176 181 183 182 175 163 156 158 156 149 142 137 133 132 130 127 127 129 129 127 125 122 119 118 119 121 121 122 123 124 125 123 121 123 124 125 124 109 95 97 95 93 93 84 86 91 61 51 56 30 23 12 359 358 348 347 358 3 1 0 360 351
212 210 209 208 208 207 204 202 199 196 199 202 196 201 205 194 183 185 189 186 184 182 179 184 187 180 178 176 167 160 163 157 146 139 135 133 132 131 131 133 135 134 130 124 120 121 125 132 136 136 137 139 139 140 140 138 138 135 129 130 131 122 120 124 118 75 44 63 83 35 31 30 2 5 354 344 351 352 346 351 356 353 351 350 342
208 207 206 206 208 206 200 198 198 196 197 197 189 193 206 201 193 194 195 191 187 182 181 186 185 176 174 174 166 158 156 151 142 139 137 134 132 130 130 131 130 132 131 125 124 135 144 144 144 145 145 146 145 148 150 148 152 156 148 146 154 147 137 154 176 329 347 4 325 333 347 336 330 338 333 334 347 353 345 345 348 345 343 343 337
207 206 205 206 206 203 199 198 197 194 194 194 187 181 183 187 193 198 196 191 187 183 179 179 178 172 168 166 160 154 152 148 145 143 139 137 135 133 132 132 130 131 131 126 130 148 153 146 147 150 152 155 156 158 163 163 167 176 181 186 203 222 210 219 296 325 302 269 288 294 291 297 309 320 326 333 341 344 339 339 341 339 338 338 334
207 205 203 203 204 202 199 198 199 197 195 193 188 184 180 174 178 189 189 184 181 180 177 175 172 168 163 160 159 157 154 151 149 146 142 141 139 136 134 133 131 132 131 128 137 156 155 152 159 159 160 169 172 172 181 187 189 203 217 219 237 261 254 266 304 324 300 277 291 288 276 287 303 312 320 325 328 331 331 332 333 333 333 333 332
205 206 205 203 203 203 201 200 201 200 198 195 191 187 184 179 175 178 180 177 177 179 178 174 170 167 165 163 163 162 159 156 152 149 146 145 143 141 140 139 137 139 138 137 156 179 172 167 177 179 181 192 194 195 206 215 218 231 245 248 261 280 274 271 289 300 285 280 290 284 274 284 298 306 313 314 315 321 325 326 327 327 328 330 330
204 207 209 205 202 203 202 202 202 201 199 198 195 192 188 184 180 178 177 178 179 180 179 177 173 171 170 169 167 166 164 160 156 154 153 152 152 152 153 154 156 160 157 159 185 202 199 195 200 204 206 211 215 219 230 240 244 249 259 265 268 276 279 275 278 281 280 282 284 278 275 280 289 299 306 305 305 313 319 320 321 323 326 328 329
203 205 208 203 200 201 202 201 201 201 200 199 197 195 193 189 186 184 182 181 181 181 182 182 179 176 174 173 171 169 167 165 163 164 165 167 171 175 177 183 194 204 206 206 208 211 213 214 216 220 223 226 233 239 245 252 257 256 257 262 268 273 275 274 274 277 280 281 280 279 276 274 279 289 291 290 295 306 313 314 317 321 324 326 329
204 204 207 203 198 198 200 200 200 201 200 199 199 198 198 195 193 191 189 187 186 185 184 186 186 184 181 177 175 175 174 174 176 180 184 189 194 197 198 205 215 217 216 218 217 215 217 224 228 232 236 239 244 249 251 255 261 260 258 261 267 269 267 268 273 277 276 273 273 272 267 266 274 282 282 284 294 304 309 312 317 321 322 325 328
210 207 208 207 200 196 196 198 199 200 199 199 201 201 202 201 200 198 197 195 193 191 189 188 190 190 188 184 182 182 184 186 190 194 198 202 204 204 205 211 219 220 216 216 217 215 216 224 234 240 245 247 249 252 253 256 258 260 260 262 266 268 270 275 281 282 276 270 267 265 261 263 271 276 278 287 298 305 309 313 317 319 320 322 323
215 212 213 212 207 199 195 195 198 199 198 199 202 203 204 205 204 203 203 201 198 198 197 194 194 195 195 193 192 191 192 196 202 204 207 208 209 209 211 216 220 220 217 216 217 219 223 229 238 247 252 252 251 251 253 254 255 255 257 260 264 269 276 281 282 279 273 268 263 258 257 262 267 273 281 290 297 302 306 310 314 316 318 319 318
217 217 217 214 210 206 201 196 198 199 199 201 204 205 206 207 206 206 206 205 203 203 203 201 200 199 197 199 202 202 200 202 208 211 212 214 214 213 215 219 219 217 219 220 222 227 232 237 243 250 253 251 249 249 249 250 251 251 254 257 260 265 271 274 275 273 269 265 261 258 261 267 274 281 287 292 296 299 304 310 313 315 316 317 317
217 218 218 216 213 212 210 205 203 203 202 203 206 208 209 210 209 208 209 208 206 206 206 206 206 203 200 201 207 209 205 204 210 213 212 213 215 215 215 219 220 220 223 226 229 233 237 239 242 245 246 247 249 249 250 250 249 251 255 258 262 269 274 273 273 274 272 270 269 266 267 273 279 283 286 289 293 300 306 310 312 313 313 313 313
212 213 217 216 214 215 216 214 211 210 209 208 209 211 211 211 211 210 210 209 208 207 207 208 208 206 206 209 213 213 209 207 212 216 214 213 215 217 218 220 222 224 227 231 233 235 237 237 236 236 237 245 253 254 253 252 250 254 258 257 262 272 276 272 272 277 278 276 273 271 271 276 282 285 288 291 296 301 305 307 308 308 309 310 310
207 208 214 216 214 215 219 219 217 215 215 214 213 212 212 211 212 212 210 210 210 209 208 209 208 206 210 217 220 218 215 214 216 218 217 217 218 219 220 223 226 228 231 232 234 236 237 234 232 233 241 255 266 265 256 251 253 258 260 260 264 271 271 268 273 279 278 274 275 278 279 281 284 286 290 294 298 300 303 304 305 306 306 307 309
210 209 212 215 216 216 219 221 220 219 221 223 223 222 220 217 215 215 213 212 212 211 211 211 210 207 211 220 224 221 217 217 219 220 219 220 221 222 224 227 229 230 231 234 240 245 246 241 238 243 254 268 278 280 273 268 267 266 262 263 270 275 270 267 272 277 274 271 278 286 288 287 288 291 293 295 297 299 302 303 302 302 304 306 308
214 213 213 216 217 217 219 221 222 223 225 228 228 228 228 225 219 217 217 216 215 215 215 214 212 209 211 218 224 222 219 218 220 221 222 222 223 225 228 231 231 232 237 244 251 256 254 249 248 253 261 271 279 283 282 280 278 272 266 266 271 274 271 269 272 276 276 276 279 283 286 288 291 293 294 293 295 297 298 298 298 301 304 307 309
219 219 218 219 221 221 221 222 223 223 225 227 226 224 226 227 222 219 219 220 218 217 218 217 216 213 212 213 218 221 220 219 220 223 224 224 224 227 230 231 232 237 246 254 258 259 256 251 252 256 261 267 273 279 281 283 283 279 274 271 269 268 270 272 274 277 280 281 281 281 283 286 289 291 292 292 292 292 292 294 297 301 304 307 309
223 225 226 225 226 227 226 226 227 226 226 228 227 223 222 223 223 220 221 223 223 221 219 218 218 217 215 214 215 218 219 219 221 223 225 225 227 229 230 231 236 245 253 258 261 261 257 252 251 254 258 263 269 274 278 281 284 282 278 274 271 269 271 274 275 278 281 284 284 284 285 286 287 289 290 292 293 293 294 297 301 304 306 308 309
225 228 230 231 232 232 232 232 232 231 228 229 231 229 225 223 222 221 221 224 226 224 220 218 218 218 217 217 217 218 218 220 222 223 224 226 228 229 231 236 243 251 256 260 263 263 258 252 251 254 258 261 265 270 274 279 281 281 279 277 274 272 272 274 277 280 283 285 287 287 286 287 287 287 288 290 292 293 295 297 300 302 304 306 306
226 229 232 233 234 235 235 236 237 236 234 231 232 233 231 227 224 221 220 221 223 223 221 219 218 219 219 219 219 220 220 222 223 223 225 227 228 229 234 241 247 252 257 261 264 262 257 253 252 254 256 259 263 268 272 275 277 279 281 279 275 273 274 276 279 282 284 286 287 287 287 288 289 290 291 293 294 295 296 298 300 302 304 305 307
227 229 232 234 235 235 236 238 239 241 239 236 233 233 233 232 227 223 220 220 220 221 221 220 219 219 220 220 220 221 222 223 224 225 225 226 227 231 239 245 250 253 258 262 263 259 255 254 254 254 255 258 261 264 267 271 276 281 282 278 274 274 276 277 280 283 285 286 287 288 288 289 290 291 292 293 294 295 297 299 300 302 304 305 307
228 230 233 235 236 237 237 238 239 240 241 240 236 233 232 232 230 224 221 221 221 220 222 222 221 221 222 223 223 224 225 226 226 226 225 226 230 236 243 249 253 256 259 261 260 258 257 256 255 254 255 257 258 260 265 272 278 280 278 274 273 274 276 278 281 285 287 288 288 288 289 289 290 290 291 292 292 294 296 298 300 303 305 306 307
Height
1534 1534 1533 1533 1533 1533 1532 1532 1531 1531 1530 1529 1529 1528 1528 1528 1528 1528 1528 1527 1527 1527 1527 1527 1528 1528 1529 1531 1531 1531 1532 1534 1535 1537 1540 1543 1546 1549 1551 1552 1555 1557 1558 1559 1560 1562 1563 1564 1565 1566 1566 1567 1568 1568 1568 1569 1569 1569 1570 1570 1570 1570 1570 1570 1570 1570 1570 1569 1568 1568 1567 1566 1567 1567 1565 1564 1564 1563 1564 1563 1562 1561 1561 1560 1559
1533 1532 1532 1531 1531 1531 1531 1530 1530 1529 1528 1528 1527 1527 1527 1527 1526 1526 1526 1525 1525 1525 1524 1524 1525 1526 1527 1527 1528 1528 1528 1529 1531 1533 1535 1538 1541 1545 1547 1549 1552 1554 1555 1557 1558 1560 1560 1561 1563 1564 1564 1565 1566 1566 1566 1566 1567 1567 1568 1568 1568 1569 1569 1569 1568 1568 1568 1568 1567 1567 1566 1565 1566 1565 1563 1562 1562 1562 1563 1563 1561 1561 1560 1560 1559
1532 1531 1530 1530 1530 1529 1529 1529 1528 1527 1527 1526 1525 1525 1525 1525 1524 1524 1524 1523 1522 1522 1522 1522 1523 1523 1523 1524 1524 1524 1524 1525 1528 1530 1532 1534 1537 1540 1543 1546 1548 1550 1552 1554 1556 1557 1558 1559 1560 1562 1562 1563 1563 1564 1564 1564 1565 1565 1565 1566 1566 1567 1567 1567 1567 1567 1566 1566 1566 1566 1565 1564 1564 1563 1562 1561 1560 1561 1562 1561 1560 1561 1559 1558 1559
1531 1529 1529 1528 1528 1528 1527 1527 1526 1526 1525 1524 1523 1523 1523 1522 1522 1521 1521 1521 1521 1520 1520 1520 1520 1520 1520 1520 1520 1521 1521 1522 1525 1527 1529 1531 1534 1537 1540 1543 1545 1548 1550 1551 1553 1555 1555 1556 1558 1559 1560 1560 1561 1562 1562 1562 1563 1563 1563 1564 1564 1565 1565 1564 1564 1564 1564 1564 1564 1564 1564 1563 1562 1562 1561 1560 1560 1560 1561 1560 1559 1559 1558 1557 1557
1529 1528 1528 1527 1526 1526 1526 1525 1525 1524 1523 1523 1522 1521 1521 1520 1520 1519 1518 1518 1518 1518 1518 1518 1518 1517 1517 1517 1517 1517 1518 1519 1522 1524 1526 1528 1531 1534 1537 1540 1543 1545 1547 1549 1550 1552 1552 1554 1556 1557 1557 1558 1559 1560 1561 1561 1561 1561 1562 1562 1562 1562 1562 1562 1562 1562 1562 1563 1563 1562 1562 1561 1561 1560 1560 1560 1560 1560 1560 1558 1557 1557 1557 1555 1554
1528 1527 1526 1525 1525 1524 1524 1524 1523 1523 1522 1521 1521 1520 1519 1519 1518 1517 1516 1516 1515 1515 1515 1515 1515 1515 1514 1514 1514 1515 1515 1516 1518 1520 1522 1525 1528 1531 1535 1537 1540 1542 1544 1545 1547 1548 1550 1551 1553 1554 1555 1556 1557 1558 1559 1559 1560 1560 1560 1560 1560 1560 1560 1561 1561 1561 1561 1561 1561 1561 1561 1560 1560 1559 1559 1558 1559 1559 1559 1558 1557 1556 1555 1553 1552
1526 1526 1525 1524 1523 1523 1522 1522 1522 1521 1521 1520 1519 1519 1518 1517 1516 1515 1514 1514 1513 1513 1512 1512 1512 1511 1511 1511 1511 1512 1512 1513 1515 1517 1519 1522 1525 1528 1531 1534 1536 1538 1540 1542 1544 1545 1547 1549 1550 1551 1552 1554 1555 1556 1557 1557 1558 1558 1558 1558 1558 1558 1559 1559 1559 1559 1559 1559 1559 1560 1559 1559 1559 1558 1558 1557 1558 1558 1557 1556 1556 1555 1553 1551 1550
1525 1524 1523 1523 1522 1521 1521 1521 1520 1520 1519 1519 1518 1517 1516 1515 1514 1513 1513 1512 1512 1511 1510 1509 1509 1508 1508 1508 1508 1509 1510 1511 1513 1515 1517 1520 1522 1525 1529 1531 1533 1535 1537 1539 1541 1543 1545 1547 1548 1549 1550 1551 1552 1553 1554 1555 1555 1556 1556 1556 1557 1557 1557 1558 1558 1558 1558 1558 1558 1558 1558 1558 1558 1558 1557 1557 1557 1557 1556 1554 1554 1553 1552 1551 1550
1524 1523 1523 1522 1521 1520 1520 1520 1519 1518 1518 1518 1517 1516 1515 1514 1513 1512 1511 1511 1510 1510 1508 1507 1506 1506 1506 1505 1506 1507 1508 1509 1511 1513 1515 1518 1521 1524 1526 1528 1530 1532 1534 1536 1539 1541 1543 1544 1545 1545 1547 1548 1550 1551 1552 1552 1553 1554 1554 1555 1555 1555 1556 1556 1556 1556 1557 1556 1557 1557 1558 1558 1557 1556 1557 1557 1556 1555 1554 1553 1552 1551 1550 1550 1549
1522 1522 1522 1521 1520 1520 1519 1519 1518 1518 1518 1517 1516 1515 1515 1513 1512 1511 1510 1510 1509 1508 1507 1506 1504 1503 1502 1502 1503 1504 1505 1507 1508 1511 1513 1516 1518 1521 1523 1525 1527 1529 1531 1534 1537 1539 1540 1540 1542 1544 1545 1546 1547 1549 1549 1550 1551 1552 1552 1552 1553 1553 1554 1554 1555 1555 1555 1556 1556 1556 1557 1557 1556 1555 1555 1556 1555 1553 1552 1551 1551 1550 1549 1549 1549
1521 1521 1521 1520 1520 1519 1519 1518 1518 1518 1517 1517 1516 1515 1514 1512 1512 1511 1510 1509 1508 1507 1506 1504 1502 1500 1498 1499 1500 1502 1503 1505 1506 1509 1512 1513 1515 1518 1520 1523 1525 1527 1529 1532 1534 1536 1537 1538 1540 1542 1543 1544 1545 1546 1547 1548 1549 1549 1550 1550 1550 1551 1552 1553 1553 1554 1554 1555 1555 1555 1555 1555 1554 1554 1554 1553 1552 1552 1551 1550 1550 1549 1548 1548 1548
1520 1520 1520 1519 1519 1519 1518 1518 1518 1517 1517 1516 1514 1513 1512 1511 1511 1510 1509 1509 1508 1507 1506 1504 1502 1499 1497 1497 1499 1500 1502 1503 1505 1507 1509 1511 1513 1515 1518 1521 1523 1525 1527 1529 1532 1533 1534 1536 1538 1539 1540 1542 1543 1544 1545 1546 1546 1547 1547 1548 1548 1548 1549 1550 1551 1552 1553 1553 1553 1552 1553 1554 1553 1553 1552 1551 1551 1550 1550 1550 1549 1548 1547 1547 1547
1519 1519 1519 1519 1518 1518 1518 1517 1517 1516 1515 1514 1513 1511 1511 1510 1509 1509 1509 1508 1508 1507 1506 1505 1502 1499 1498 1498 1499 1500 1501 1503 1504 1506 1508 1509 1510 1512 1516 1519 1522 1524 1526 1529 1530 1531 1533 1535 1536 1537 1539 1540 1541 1542 1543 1543 1544 1544 1545 1545 1546 1546 1547 1548 1549 1550 1550 1551 1551 1550 1550 1551 1551 1551 1549 1549 1549 1549 1548 1549 1547 1546 1546 1545 1545
1518 1518 1518 1518 1518 1517 1517 1517 1516 1515 1514 1512 1511 1510 1509 1509 1508 1508 1508 1508 1507 1506 1506 1506 1503 1499 1499 1501 1502 1501 1501 1502 1503 1504 1505 1508 1509 1511 1514 1518 1522 1524 1527 1529 1529 1529 1531 1533 1534 1536 1538 1538 1539 1540 1540 1541 1542 1543 1543 1544 1544 1544 1545 1546 1547 1547 1548 1548 1549 1548 1548 1548 1549 1548 1548 1548 1548 1547 1547 1547 1546 1545 1545 1544 1543
1517 1517 1517 1517 1517 1517 1516 1516 1515 1514 1512 1510 1509 1508 1508 1507 1507 1507 1507 1508 1507 1506 1506 1505 1503 1501 1501 1503 1504 1504 1503 1503 1503 1503 1504 1507 1509 1512 1514 1518 1521 1523 1526 1528 1528 1528 1529 1532 1533 1534 1536 1536 1537 1538 1539 1540 1541 1541 1542 1542 1543 1543 1544 1544 1545 1546 1546 1546 1546 1546 1546 1547 1547 1547 1547 1546 1546 1546 1545 1545 1545 1544 1544 1543 1544
1515 1515 1516 1516 1516 1516 1515 1514 1513 1512 1511 1509 1508 1507 1506 1506 1506 1506 1507 1507 1506 1506 1506 1505 1503 1502 1503 1504 1505 1506 1505 1505 1505 1505 1507 1508 1510 1512 1515 1518 1520 1522 1524 1526 1527 1527 1529 1531 1532 1533 1534 1535 1536 1536 1538 1539 1540 1540 1541 1541 1542 1542 1543 1543 1544 1544 1544 1545 1545 1545 1545 1545 1545 1545 1545 1545 1545 1544 1544 1545 1545 1544 1544 1544 1544
1514 1514 1514 1514 1514 1514 1514 1513 1512 1511 1510 1508 1507 1506 1505 1505 1505 1506 1506 1507 1506 1506 1506 1505 1503 1503 1505 1505 1506 1506 1506 1506 1507 1508 1510 1511 1512 1513 1516 1518 1520 1522 1524 1525 1526 1527 1529 1530 1531 1532 1532 1533 1534 1535 1536 1538 1539 1540 1540 1540 1541 1541 1542 1542 1542 1543 1543 1543 1544 1544 1544 1544 1544 1544 1544 1544 1544 1544 1544 1545 1545 1543 1544 1544 1543
1513 1513 1513 1513 1513 1513 1513 1512 1511 1510 1509 1507 1506 1505 1504 1505 1505 1505 1506 1506 1505 1505 1506 1505 1503 1503 1505 1507 1507 1507 1507 1507 1508 1509 1510 1511 1512 1514 1516 1518 1519 1521 1523 1524 1526 1527 1528 1529 1529 1530 1531 1532 1533 1534 1535 1537 1539 1540 1539 1539 1540 1540 1540 1541 1541 1542 1542 1542 1542 1543 1543 1543 1543 1543 1543 1543 1543 1543 1543 1544 1543 1542 1543 1543 1541
1511 1512 1512 1512 1512 1511 1511 1510 1510 1509 1508 1507 1505 1504 1504 1504 1504 1505 1506 1506 1505 1505 1505 1505 1504 1504 1505 1507 1507 1507 1508 1508 1508 1509 1510 1511 1512 1514 1516 1517 1519 1521 1522 1524 1525 1526 1527 1528 1529 1530 1531 1531 1532 1533 1535 1537 1539 1539 1539 1539 1539 1539 1539 1540 1541 1541 1541 1541 1541 1542 1542 1542 1543 1543 1543 1543 1543 1543 1542 1542 1542 1541 1541 1541 1540
1510 1510 1511 1510 1510 1509 1509 1509 1509 1508 1508 1507 1505 1504 1504 1504 1504 1505 1506 1506 1505 1505 1505 1506 1505 1505 1506 1507 1507 1508 1508 1509 1509 1510 1510 1511 1512 1514 1516 1518 1519 1521 1523 1524 1525 1526 1527 1528 1529 1530 1530 1531 1532 1533 1534 1536 1537 1538 1539 1539 1539 1540 1540 1540 1541 1541 1541 1541 1541 1541 1542 1542 1542 1542 1543 1542 1542 1542 1541 1541 1540 1540 1539 1539 1539
1508 1509 1510 1510 1509 1507 1507 1508 1508 1508 1508 1507 1506 1505 1505 1505 1505 1505 1506 1506 1505 1505 1505 1506 1507 1506 1507 1508 1508 1509 1509 1509 1510 1510 1511 1512 1513 1515 1517 1519 1520 1522 1523 1525 1526 1527 1527 1528 1529 1529 1530 1531 1532 1533 1534 1535 1536 1537 1537 1538 1538 1539 1539 1540 1540 1540 1540 1541 1541 1542 1542 1543 1543 1543 1542 1542 1541 1541 1540 1539 1539 1538 1538 1538 1537
1507 1508 1508 1509 1509 1507 1506 1506 1507 1508 1508 1507 1506 1505 1505 1505 1505 1506 1506 1506 1505 1505 1506 1507 1507 1507 1508 1508 1509 1509 1510 1510 1510 1511 1512 1513 1514 1515 1517 1518 1520 1523 1524 1526 1527 1527 1527 1528 1529 1529 1530 1531 1532 1533 1533 1534 1534 1535 1536 1537 1537 1538 1538 1539 1539 1540 1541 1542 1543 1543 1544 1544 1544 1543 1543 1542 1541 1540 1539 1539 1538 1537 1536 1536 1535
1506 1506 1507 1508 1508 1508 1506 1505 1506 1508 1508 1507 1506 1506 1505 1505 1506 1506 1506 1506 1506 1506 1507 1508 1509 1509 1509 1509 1510 1510 1510 1511 1511 1512 1513 1514 1515 1516 1517 1518 1521 1524 1526 1526 1526 1526 1527 1528 1529 1530 1530 1531 1532 1532 1533 1534 1534 1535 1535 1536 1537 1537 1538 1539 1540 1541 1542 1543 1543 1544 1544 1544 1544 1543 1542 1541 1540 1539 1539 1538 1537 1536 1535 1534 1533
1505 1505 1506 1506 1507 1507 1506 1505 1506 1508 1508 1507 1507 1506 1505 1505 1506 1506 1506 1507 1507 1507 1508 1509 1510 1510 1510 1510 1511 1511 1511 1512 1512 1513 1514 1515 1516 1517 1519 1520 1521 1524 1525 1526 1526 1526 1527 1528 1529 1530 1531 1532 1532 1532 1533 1534 1534 1535 1536 1537 1537 1538 1539 1540 1541 1541 1542 1543 1543 1543 1543 1543 1543 1542 1541 1540 1539 1538 1538 1537 1536 1535 1534 1532 1531
1504 1504 1505 1505 1505 1506 1506 1506 1506 1507 1507 1507 1507 1506 1506 1506 1507 1507 1507 1507 1507 1508 1509 1510 1511 1512 1512 1512 1512 1512 1512 1513 1514 1514 1516 1517 1518 1519 1520 1522 1523 1523 1524 1525 1525 1526 1527 1528 1529 1530 1531 1532 1532 1533 1533 1534 1535 1536 1536 1537 1538 1539 1540 1541 1541 1542 1543 1543 1543 1543 1542 1542 1541 1541 1540 1539 1539 1538 1537 1536 1535 1534 1533 1531 1530
1502 1503 1503 1504 1504 1505 1505 1506 1506 1506 1507 1507 1507 1507 1507 1507 1507 1507 1507 1507 1508 1508 1510 1511 1512 1513 1513 1512 1512 1513 1513 1514 1515 1516 1517 1518 1519 1520 1522 1523 1524 1524 1524 1525 1526 1527 1528 1529 1530 1531 1531 1532 1533 1534 1534 1535 1535 1536 1537 1537 1538 1540 1541 1541 1542 1542 1543 1543 1543 1542 1542 1541 1540 1539 1539 1539 1538 1538 1536 1535 1535 1534 1532 1531 1530
1501 1501 1502 1502 1503 1504 1504 1505 1505 1505 1506 1507 1507 1507 1507 1507 1507 1507 1507 1507 1508 1509 1510 1511 1513 1514 1513 1513 1513 1513 1514 1515 1516 1517 1519 1520 1521 1522 1522 1524 1525 1525 1525 1526 1527 1528 1529 1530 1531 1531 1532 1533 1533 1534 1535 1535 1536 1537 1538 1538 1539 1540 1540 1541 1541 1542 1542 1542 1542 1542 1541 1541 1540 1540 1539 1539 1538 1537 1535 1534 1534 1533 1531 1530 1530
1500 1500 1501 1501 1501 1502 1503 1503 1504 1505 1506 1506 1507 1507 1507 1507 1507 1507 1507 1508 1508 1509 1510 1512 1513 1514 1513 1513 1514 1514 1515 1516 1517 1518 1519 1520 1521 1523 1523 1524 1525 1526 1527 1527 1528 1529 1530 1531 1531 1532 1533 1534 1534 1535 1536 1536 1537 1538 1539 1539 1539 1539 1540 1540 1541 1541 1541 1542 1542 1541 1541 1541 1540 1540 1540 1539 1538 1537 1535 1533 1532 1531 1530 1529 1529
1498 1499 1499 1500 1500 1501 1502 1502 1503 1504 1505 1506 1506 1506 1506 1506 1506 1507 1507 1508 1508 1510 1511 1512 1513 1513 1513 1514 1514 1515 1516 1517 1518 1519 1520 1521 1522 1523 1524 1525 1526 1527 1528 1528 1529 1530 1530 1531 1532 1533 1534 1535 1536 1536 1537 1537 1538 1539 1539 1539 1540 1540 1540 1541 1541 1541 1541 1541 1541 1541 1541 1541 1540 1539 1539 1538 1537 1536 1534 1532 1531 1530 1529 1528 1528
1497 1498 1498 1498 1499 1499 1501 1502 1502 1503 1504 1505 1505 1504 1504 1504 1504 1505 1506 1506 1507 1509 1510 1511 1512 1512 1513 1514 1515 1516 1517 1518 1518 1520 1521 1522 1523 1524 1525 1526 1527 1528 1528 1528 1529 1531 1532 1533 1534 1534 1535 1536 1537 1537 1538 1538 1539 1539 1539 1539 1540 1541 1541 1541 1541 1541 1541 1540 1541 1540 1540 1540 1539 1539 1538 1537 1536 1535 1533 1531 1530 1529 1528 1527 1526
1496 1496 1496 1497 1497 1498 1499 1501 1501 1502 1503 1503 1504 1504 1503 1503 1503 1503 1504 1505 1506 1508 1509 1510 1511 1511 1513 1514 1515 1516 1517 1518 1519 1521 1522 1523 1524 1525 1526 1527 1528 1528 1529 1529 1530 1532 1533 1534 1534 1535 1535 1536 1537 1537 1538 1538 1539 1539 1539 1540 1540 1540 1540 1541 1541 1540 1539 1539 1539 1539 1539 1539 1538 1538 1537 1536 1534 1533 1532 1531 1530 1529 1528 1526 1525
1494 1495 1495 1496 1496 1496 1498 1499 1500 1501 1502 1502 1503 1503 1503 1503 1503 1503 1504 1505 1505 1507 1508 1509 1510 1511 1513 1514 1516 1516 1517 1519 1520 1521 1522 1524 1525 1526 1527 1528 1528 1529 1529 1529 1530 1532 1533 1533 1534 1534 1535 1536 1536 1537 1537 1538 1538 1539 1539 1539 1539 1539 1539 1540 1539 1539 1539 1539 1538 1538 1538 1538 1537 1536 1535 1534 1532 1532 1531 1530 1529 1528 1527 1525 1524
1493 1494 1494 1495 1495 1495 1497 1498 1499 1500 1501 1501 1502 1503 1503 1504 1503 1503 1504 1505 1506 1507 1508 1509 1510 1512 1513 1515 1516 1517 1518 1519 1521 1522 1523 1524 1525 1526 1527 1528 1528 1529 1529 1529 1530 1532 1533 1533 1533 1534 1534 1535 1535 1536 1536 1536 1537 1537 1538 1538 1539 1539 1539 1538 1537 1537 1537 1537 1537 1537 1537 1536 1535 1534 1533 1533 1532 1531 1530 1529 1528 1527 1525 1524 1522
1492 1492 1493 1493 1494 1494 1495 1496 1497 1498 1499 1501 1501 1502 1503 1504 1504 1504 1504 1505 1506 1507 1508 1509 1511 1512 1513 1515 1516 1518 1519 1520 1521 1522 1523 1524 1525 1526 1527 1528 1528 1529 1529 1529 1530 1531 1532 1532 1533 1533 1534 1534 1534 1535 1535 1535 1536 1536 1536 1537 1537 1537 1538 1537 1536 1536 1536 1536 1535 1535 1535 1534 1533 1533 1532 1532 1530 1529 1529 1527 1526 1525 1523 1522 1520
1491 1491 1491 1492 1493 1494 1494 1495 1496 1497 1498 1500 1501 1502 1503 1504 1504 1505 1505 1506 1507 1507 1509 1510 1511 1512 1513 1515 1516 1517 1519 1520 1521 1522 1523 1524 1525 1526 1527 1528 1528 1529 1529 1529 1530 1531 1532 1532 1532 1532 1533 1533 1533 1533 1534 1534 1534 1535 1535 1535 1536 1536 1536 1536 1535 1535 1535 1535 1534 1534 1533 1532 1532 1531 1531 1530 1529 1528 1527 1526 1525 1523 1521 1519 1517
1489 1490 1490 1491 1492 1493 1493 1494 1495 1496 1497 1498 1500 1501 1502 1503 1504 1505 1506 1507 1507 1508 1509 1510 1511 1512 1514 1515 1516 1517 1518 1520 1521 1522 1523 1524 1525 1526 1526 1527 1528 1529 1528 1529 1529 1530 1531 1531 1531 1531 1531 1532 1532 1532 1532 1533 1533 1533 1533 1534 1534 1534 1534 1534 1534 1534 1533 1533 1533 1532 1531 1531 1530 1529 1529 1528 1527 1526 1525 1524 1522 1520 1518 1516 1514
1487 1488 1489 1489 1491 1492 1493 1493 1494 1495 1496 1497 1499 1500 1501 1502 1503 1504 1505 1506 1507 1508 1510 1511 1511 1512 1513 1514 1515 1517 1518 1519 1520 1521 1523 1524 1524 1525 1526 1527 1528 1528 1528 1528 1529 1529 1529 1530 1530 1530 1530 1530 1530 1531 1531 1531 1531 1532 1532 1531 1531 1532 1532 1531 1531 1531 1531 1531 1531 1530 1529 1529 1528 1527 1526 1525 1524 1523 1522 1521 1519 1518 1516 1514 1512
1485 1487 1488 1488 1489 1491 1492 1492 1493 1494 1495 1496 1497 1498 1499 1501 1502 1503 1504 1505 1506 1507 1509 1510 1510 1511 1512 1513 1514 1515 1517 1518 1519 1520 1521 1522 1523 1524 1524 1526 1527 1527 1527 1527 1528 1528 1528 1528 1528 1529 1529 1529 1529 1529 1529 1529 1529 1530 1530 1529 1529 1529 1528 1528 1528 1528 1528 1528 1528 1528 1527 1526 1526 1525 1524 1522 1521 1520 1519 1518 1517 1516 1514 1512 1510
1483 1484 1486 1487 1488 1489 1491 1491 1492 1493 1494 1495 1496 1497 1498 1499 1500 1501 1502 1503 1504 1505 1507 1508 1509 1510 1511 1512 1513 1514 1515 1516 1517 1518 1520 1521 1522 1523 1523 1524 1525 1525 1525 1526 1526 1526 1527 1527 1527 1527 1527 1527 1527 1527 1527 1527 1527 1527 1527 1527 1527 1527 1526 1526 1526 1526 1526 1525 1525 1525 1524 1524 1523 1522 1521 1520 1519 1518 1517 1516 1514 1513 1511 1510 1508
1481 1482 1483 1484 1486 1488 1489 1490 1491 1491 1492 1493 1495 1496 1497 1497 1498 1499 1500 1501 1502 1503 1505 1506 1507 1508 1510 1511 1511 1511 1513 1515 1516 1518 1519 1519 1520 1521 1522 1523 1524 1524 1524 1524 1524 1524 1525 1525 1525 1525 1525 1525 1525 1525 1525 1525 1525 1525 1525 1525 1525 1525 1524 1524 1524 1524 1523 1523 1522 1522 1521 1520 1520 1519 1518 1517 1516 1515 1514 1513 1511 1509 1508 1506 1505
1479 1480 1480 1482 1484 1485 1486 1488 1489 1490 1491 1492 1493 1494 1495 1495 1497 1498 1499 1500 1501 1502 1503 1504 1505 1506 1508 1509 1509 1509 1512 1514 1515 1516 1517 1518 1519 1520 1520 1521 1521 1521 1522 1522 1522 1522 1522 1522 1523 1523 1523 1523 1523 1523 1522 1522 1522 1523 1523 1522 1522 1522 1522 1522 1521 1520 1520 1520 1519 1519 1518 1517 1517 1516 1515 1514 1513 1512 1511 1509 1508 1506 1505 1503 1502
1476 1477 1478 1479 1481 1483 1484 1485 1486 1488 1489 1490 1491 1492 1493 1493 1494 1496 1496 1498 1499 1500 1501 1502 1503 1505 1506 1506 1507 1508 1510 1512 1514 1514 1515 1516 1516 1517 1518 1518 1519 1519 1519 1519 1519 1520 1520 1520 1520 1521 1521 1521 1520 1520 1520 1520 1520 1520 1520 1520 1520 1519 1519 1518 1518 1517 1517 1516 1516 1515 1515 1515 1514 1513 1512 1511 1510 1509 1508 1506 1505 1504 1502 1501 1499
1474 1475 1476 1477 1478 1480 1481 1482 1484 1485 1486 1487 1488 1489 1490 1491 1492 1493 1494 1495 1496 1497 1498 1499 1501 1502 1503 1503 1505 1506 1508 1510 1511 1512 1512 1513 1513 1514 1515 1515 1515 1516 1516 1516 1517 1517 1517 1517 1518 1518 1518 1518 1518 1518 1518 1518 1518 1518 1518 1517 1517 1516 1516 1515 1514 1514 1514 1513 1513 1512 1512 1512 1511 1510 1509 1508 1506 1505 1504 1503 1502 1500 1499 1498 1497
1471 1472 1473 1474 1475 1477 1478 1479 1481 1482 1483 1484 1485 1486 1487 1488 1489 1490 1491 1492 1493 1494 1495 1496 1498 1499 1500 1500 1501 1503 1505 1506 1508 1509 1509 1510 1510 1511 1511 1512 1512 1513 1513 1513 1514 1514 1514 1514 1515 1515 1515 1515 1515 1515 1515 1515 1515 1515 1515 1514 1513 1513 1513 1512 1512 1511 1511 1511 1510 1509 1509 1508 1507 1507 1506 1505 1503 1502 1501 1500 1499 1497 1496 1495 1493
1468 1469 1471 1471 1472 1474 1475 1476 1477 1479 1479 1481 1482 1483 1484 1485 1486 1487 1488 1489 1490 1491 1492 1493 1495 1496 1497 1497 1498 1499 1501 1503 1504 1505 1506 1507 1508 1508 1509 1509 1509 1510 1510 1510 1510 1511 1511 1511 1511 1511 1512 1512 1512 1512 1512 1512 1512 1512 1512 1511 1510 1510 1510 1509 1509 1508 1508 1508 1507 1507 1506 1505 1504 1503 1503 1502 1500 1499 1498 1497 1496 1494 1493 1491 1490
1465 1466 1467 1468 1469 1471 1472 1473 1474 1475 1476 1477 1478 1479 1480 1481 1482 1484 1484 1485 1486 1488 1489 1490 1491 1492 1493 1494 1495 1496 1497 1499 1501 1502 1503 1504 1504 1505 1505 1506 1506 1506 1507 1507 1507 1508 1508 1508 1508 1508 1509 1509 1508 1508 1508 1508 1508 1508 1508 1508 1507 1507 1506 1506 1506 1505 1505 1504 1504 1504 1503 1502 1501 1500 1499 1498 1498 1496 1495 1494 1492 1491 1490 1488 1487
1462 1463 1464 1465 1466 1467 1468 1469 1470 1472 1473 1473 1475 1476 1477 1478 1479 1480 1481 1481 1483 1484 1485 1486 1488 1489 1490 1491 1492 1493 1494 1495 1497 1498 1499 1500 1501 1501 1502 1502 1503 1503 1503 1504 1504 1504 1505 1505 1505 1505 1505 1505 1505 1505 1505 1505 1505 1505 1504 1504 1504 1503 1503 1502 1502 1501 1501 1501 1500 1500 1499 1498 1498 1496 1495 1494 1494 1493 1491 1490 1489 1487 1486 1485 1483
1458 1459 1460 1461 1463 1464 1465 1466 1467 1468 1469 1470 1471 1472 1473 1474 1475 1476 1477 1478 1478 1480 1481 1483 1484 1485 1486 1487 1488 1489 1491 1492 1493 1494 1495 1496 1497 1498 1498 1499 1499 1499 1500 1500 1501 1501 1501 1501 1501 1501 1501 1501 1501 1501 1501 1501 1501 1501 1500 1500 1500 1499 1499 1499 1498 1498 1498 1497 1497 1496 1495 1495 1494 1493 1492 1491 1490 1489 1488 1487 1486 1484 1483 1482 1480
1454 1455 1456 1457 1459 1460 1461 1462 1463 1464 1465 1467 1467 1468 1469 1471 1472 1473 1474 1474 1475 1476 1477 1478 1480 1481 1482 1484 1485 1486 1487 1488 1489 1491 1492 1493 1494 1494 1494 1494 1495 1496 1496 1497 1497 1497 1497 1497 1497 1497 1497 1497 1497 1497 1497 1497 1497 1497 1496 1496 1496 1496 1496 1495 1495 1494 1494 1494 1493 1492 1492 1491 1490 1489 1488 1487 1486 1485 1484 1483 1482 1481 1480 1478 1477
1450 1451 1452 1453 1454 1455 1457 1458 1459 1460 1461 1463 1463 1464 1465 1467 1468 1469 1470 1471 1472 1472 1473 1474 1476 1477 1479 1480 1481 1482 1483 1484 1486 1487 1488 1489 1490 1490 1490 1490 1491 1492 1493 1493 1493 1493 1493 1493 1493 1493 1493 1493 1493 1493 1493 1493 1493 1493 1493 1493 1493 1492 1492 1492 1491 1491 1491 1490 1489 1489 1488 1487 1486 1486 1485 1484 1483 1482 1481 1480 1479 1478 1476 1475 1473
1445 1446 1448 1449 1450 1451 1453 1454 1455 1456 1457 1458 1459 1460 1461 1462 1463 1465 1466 1466 1468 1469 1469 1470 1472 1473 1474 1476 1477 1478 1479 1480 1482 1483 1484 1485 1485 1485 1485 1487 1488 1488 1489 1489 1489 1489 1489 1489 1489 1489 1489 1489 1489 1489 1489 1489 1489 1489 1489 1489 1489 1489 1489 1488 1488 1487 1487 1486 1486 1485 1484 1483 1483 1482 1481 1481 1480 1479 1478 1476 1475 1474 1473 1471 1470